Location: Madrid
(40.4000°N, 3.6830°W)
Time: 20:19:44
(UTC+01:00)

ISS - Pass Details

Date: 25 February 2021
Orbit: 417 x 422 km, 51.6° (Epoch: 26 February)

Event Time Altitude Azimuth Distance (km) Brightness Sun altitude
Exits shadow 06:23:12 31° 335° (NNW) 754 -2.7 -18.1°
Drops below altitude 10° 06:26:11 10° 38° (NE) 1,498 -0.4 -17.5°
Sets 06:28:27 0° 49° (NE) 2,364 0.9 -17.1°
